User: anonymous   Login
Location: Oshawa
(43.9000°N, 78.8670°W)
Time: 21:12:49
(UTC-05:00)
Language:

Cosmos 1821 Rocket - Orbit

View from above orbital plane
View from above orbital plane
View from above satellite
View from above satellite

Ground track
Ground track

The orbit data is extracted from the following two-line orbital elements,

1 17526U 87017B   17017.82585658 -.00000022  00000-0 -37543-4 0  9999
2 17526  82.9038 152.5942 0040524  19.3276 340.9406 13.76800623485654
Epoch (UTC): 17 January 2017 19:49:14
Eccentricity: 0.0040524
inclination: 82.9038°
perigee height: 945 km
apogee height: 1005 km
right ascension of ascending node: 152.5942°
argument of perigee: 19.3276°
revolutions per day: 13.76800623
mean anomaly at epoch: 340.9406°
orbit number at epoch: 48565

The dashed part of the orbit path shows where the satellite is in the earth's shadow,  

DLR